RH
38 44 47 39 39 36 36 38 41 35 28 32 36 35 31 34 36 44 47 49 48 48 48 49 50 55 55 54 52 56 57 63 65 70 74 73 74 75 86 86 81 82 83 84
42 47 33 34 35 37 37 43 43 33 29 39 39 36 34 35 38 39 44 48 46 48 50 48 52 56 56 54 53 53 55 59 64 70 73 70 76 75 84 84 79 80 81 84
46 35 32 34 36 40 41 41 38 36 40 45 46 46 41 36 39 38 42 41 41 46 48 49 52 58 55 50 51 51 53 54 60 64 66 69 72 73 76 78 80 80 80 84
44 33 35 38 39 36 42 32 35 43 49 53 42 64 46 43 45 43 42 41 44 44 44 49 56 58 53 54 52 52 50 52 56 62 69 72 77 78 80 86 79 72 77 84
43 36 40 43 37 32 36 36 41 44 55 59 47 65 55 43 49 48 44 43 46 46 45 50 53 49 48 49 48 52 50 53 58 67 73 80 80 84 81 76 79 77 76 84
40 33 36 36 33 36 39 44 50 57 60 73 55 62 64 53 43 44 41 40 43 45 45 47 46 46 45 48 49 46 49 61 69 74 76 78 83 87 90 91 92 89 85 82
46 42 38 33 44 42 42 51 70 65 70 72 49 61 57 46 42 41 40 41 43 46 48 46 44 42 42 46 46 49 55 68 73 71 75 80 86 92 95 97 98 94 92 90
64 58 46 39 45 47 54 59 75 73 80 65 55 69 57 46 46 42 37 40 40 46 40 40 37 38 37 40 44 54 67 77 75 74 81 89 93 98 98 98 97 96 91 91
67 60 44 44 48 52 51 60 51 71 87 93 76 61 44 47 48 49 45 42 46 47 39 37 36 39 40 41 49 62 77 78 75 79 86 91 94 96 98 97 96 91 90 81
52 66 59 50 45 51 49 48 59 84 88 92 80 76 64 55 53 51 51 48 50 43 41 41 39 40 38 46 62 72 78 75 79 83 90 89 94 96 96 97 96 95 93 92
61 70 67 64 63 66 58 60 72 74 91 95 95 87 58 53 52 53 48 47 54 47 43 41 38 38 38 57 67 81 83 82 82 86 89 92 93 95 96 97 96 95 95 92
83 79 82 74 72 63 61 62 70 86 78 95 98 86 48 59 58 50 48 47 54 43 43 43 40 37 48 60 72 82 85 83 86 87 90 91 94 95 97 96 87 93 91 86
76 91 92 78 62 64 67 68 71 81 95 94 96 78 56 59 56 54 54 55 47 41 40 42 40 40 47 60 69 81 87 89 88 89 90 92 94 96 96 93 87 88 92 84
82 89 89 93 67 71 83 78 70 76 98 80 81 73 56 50 66 69 64 52 48 44 40 40 40 46 49 61 69 78 86 89 88 91 93 94 93 92 96 88 93 93 90 92
88 98 97 89 75 78 77 80 80 89 78 93 72 68 57 53 61 63 62 72 84 86 85 80 51 49 51 66 74 76 81 87 91 93 94 94 92 92 94 93 88 92 91 87
96 98 98 100 97 90 94 90 86 81 79 79 74 77 58 63 63 72 75 82 87 86 81 65 40 43 57 66 75 78 81 86 92 94 93 92 92 92 91 88 85 76 81 67
99 98 100 92 85 88 95 92 82 67 64 69 83 66 34 40 40 43 61 73 81 45 37 44 48 52 60 70 75 81 82 86 92 93 90 91 92 88 89 88 87 84 79 72
99 99 100 98 95 97 70 56 52 62 62 47 40 36 38 40 42 38 39 39 39 40 41 44 55 60 64 69 76 80 86 87 89 89 88 89 91 89 90 92 90 89 89 81
92 97 100 100 96 81 73 60 55 63 57 51 52 49 48 41 40 38 42 50 49 49 52 59 62 65 59 70 68 76 86 84 87 85 84 83 86 87 89 93 91 90 90 83
94 95 98 100 99 95 72 35 34 41 75 49 62 54 47 55 74 52 38 46 51 52 56 55 52 58 71 66 68 80 80 84 84 79 79 77 84 85 88 90 91 91 84 84
99 99 98 98 99 97 74 36 52 84 79 56 48 46 51 64 64 46 56 58 62 65 68 71 65 69 68 69 68 71 74 80 70 70 75 79 84 85 84 89 92 91 88 89
90 98 98 99 99 96 48 49 72 75 64 56 54 52 56 56 67 72 83 90 90 93 88 85 85 84 82 83 88 94 93 88 84 79 69 74 81 80 79 88 92 91 92 92
95 91 94 93 91 61 62 80 77 70 63 57 56 69 76 88 90 90 87 82 80 73 72 70 74 71 73 69 74 91 88 82 86 95 91 78 82 83 88 89 93 95 92 96
93 88 99 97 94 71 70 67 46 55 77 83 86 88 87 86 79 81 78 73 70 79 80 70 71 71 71 68 67 73 77 79 82 83 85 90 96 96 87 87 90 93 95 95
94 96 98 100 96 90 70 61 74 77 83 86 80 78 76 74 74 74 72 72 68 65 74 75 75 70 64 64 69 72 75 75 82 86 83 85 94 88 89 86 87 91 90 92
90 97 98 96 80 94 84 78 78 82 81 74 74 74 70 80 86 80 81 78 78 82 67 66 65 68 69 73 73 66 70 75 80 87 94 92 97 98 98 98 97 93 91 88
Wind_Speed
1 3 8 11 8 4 4 5 5 7 6 4 3 5 9 7 9 10 11 12 10 11 7 6 5 6 7 7 8 7 9 5 3 4 3 3 3 3 3 4 6 7 7 7
2 8 13 3 6 7 8 8 10 7 5 1 5 10 8 7 6 17 17 12 11 7 6 6 6 5 5 7 7 7 8 6 3 3 2 2 2 1 1 1 3 4 5 5
7 9 2 4 7 8 10 8 6 6 4 2 0 7 3 1 3 7 7 9 10 14 12 8 7 7 7 7 7 6 7 6 4 4 2 3 3 2 2 2 3 3 5 6
7 9 12 11 8 8 8 6 5 3 2 4 4 5 8 2 3 5 9 10 12 12 8 6 6 5 6 5 5 6 5 5 5 5 5 4 1 1 2 3 3 5 5 6
8 3 2 3 5 6 8 6 4 3 2 2 3 3 9 3 4 6 7 8 8 8 9 10 8 7 5 6 6 6 6 5 5 6 5 3 2 2 3 4 9 8 7 6
7 3 3 7 5 3 0 2 5 4 3 2 5 3 6 4 2 2 5 9 11 8 7 8 6 6 6 5 5 5 7 5 6 5 3 3 2 4 4 5 5 6 7 7
5 5 4 5 1 1 4 5 4 4 3 6 2 2 9 6 6 9 16 14 11 8 9 10 9 7 6 6 7 5 7 5 3 5 5 4 5 4 3 4 3 6 6 6
1 6 5 2 2 7 3 6 6 5 4 5 5 6 6 5 9 4 9 11 10 9 12 12 10 8 8 7 5 6 7 5 3 2 2 3 5 4 4 4 4 4 5 7
3 5 3 5 3 3 3 2 4 4 3 2 4 6 5 2 4 2 7 11 10 8 10 12 9 7 7 7 7 8 7 5 3 3 5 6 5 4 4 5 5 4 5 4
5 4 3 4 1 6 3 2 2 4 2 5 5 5 7 5 7 7 8 13 8 8 5 4 5 5 5 5 4 6 6 5 3 3 2 3 4 5 5 4 6 6 5 3
1 4 3 3 3 3 3 2 5 3 5 4 5 6 6 6 9 13 16 12 9 9 8 8 7 6 6 5 6 6 6 5 2 2 3 4 5 5 5 5 5 5 6 1
3 1 2 6 2 0 4 2 5 6 4 5 4 7 11 10 5 10 11 11 8 11 9 8 8 7 5 5 6 6 5 2 0 1 2 4 5 5 5 5 6 6 5 1
3 1 5 6 3 3 5 5 4 5 4 7 5 10 3 3 4 7 9 9 12 11 7 6 5 5 7 6 6 5 3 4 5 3 3 5 5 5 6 6 6 5 6 4
7 3 8 8 3 4 3 4 4 5 3 9 12 27 21 19 6 7 8 8 7 5 3 3 3 7 6 6 6 5 6 6 4 4 5 6 6 6 6 6 5 6 6 5
4 3 2 9 5 5 6 6 7 7 13 9 21 24 26 18 15 14 12 8 7 6 9 12 9 8 7 6 5 6 6 6 6 6 6 8 7 7 6 6 5 5 6 5
3 3 5 7 8 8 10 8 10 14 17 16 22 25 12 7 7 6 7 10 13 18 15 11 10 7 5 6 7 8 8 8 7 8 9 7 7 6 6 6 6 5 5 8
5 6 3 15 5 1 10 12 18 13 12 9 13 10 3 4 7 8 6 5 3 1 4 4 6 6 7 8 9 9 10 7 7 8 9 7 7 7 7 6 6 6 6 6
8 6 3 6 2 13 4 4 6 12 10 3 2 1 2 2 3 5 6 5 6 6 6 7 6 6 8 8 8 9 7 8 8 10 10 8 7 8 7 7 7 7 5 6
5 5 3 4 6 11 9 8 5 7 4 0 4 2 1 4 2 4 3 2 3 6 7 7 8 8 9 9 12 9 7 10 9 13 12 11 9 10 8 8 7 7 5 4
2 1 7 3 5 8 1 3 2 3 6 4 5 3 2 3 3 4 5 5 8 8 7 9 11 9 8 13 11 6 9 7 11 14 15 12 10 11 10 9 8 6 5 5
2 1 13 11 7 6 3 3 1 5 2 4 5 6 5 3 4 4 7 9 10 10 14 15 13 10 11 13 13 10 9 9 14 12 13 12 10 12 11 9 6 6 6 4
8 7 5 3 3 10 3 2 5 1 0 2 2 3 3 5 9 10 11 12 13 14 17 17 14 13 13 15 15 13 13 14 15 16 16 16 11 10 8 9 6 6 6 6
4 8 6 8 5 3 4 3 3 2 2 3 6 8 11 10 8 9 10 13 12 13 11 11 10 11 10 13 11 13 15 17 18 14 15 13 9 9 8 9 7 4 5 4
2 3 3 2 5 5 4 1 3 9 11 11 12 11 11 10 9 9 9 9 9 7 8 10 10 12 13 13 13 13 14 15 16 17 17 13 11 13 8 6 6 6 5 4
4 7 5 3 3 6 3 6 10 13 11 13 13 12 11 9 9 8 8 8 9 9 11 11 12 12 13 14 14 14 16 18 17 17 15 15 9 9 9 8 7 7 6 6
5 6 6 6 7 6 6 9 10 12 12 10 10 11 13 9 8 8 7 7 8 10 10 11 11 11 12 12 13 14 15 16 15 16 13 10 8 3 1 1 3 7 8 10
Wind_Direction
259 124 225 225 203 242 318 286 246 269 276 271 290 297 296 150 116 145 159 161 158 154 169 151 128 131 116 96 99 99 92 71 64 55 50 26 31 13 36 27 18 12 0 352
325 243 235 225 223 226 257 261 275 276 247 185 288 284 261 140 189 180 165 163 161 155 155 151 138 116 100 109 101 98 101 92 76 97 137 118 118 334 154 325 351 348 337 331
184 237 51 206 260 238 244 224 235 240 310 271 81 304 305 147 89 150 157 154 159 167 165 159 148 145 140 115 117 103 95 93 75 72 66 41 37 347 314 321 297 301 298 300
229 253 259 282 241 219 245 216 221 255 10 282 141 274 293 149 112 166 162 167 164 171 168 151 148 146 146 138 118 118 117 91 71 56 59 67 117 264 262 266 288 309 293 281
238 206 163 280 226 169 245 186 206 254 159 3 301 88 264 78 274 211 190 178 179 173 162 162 170 164 165 155 159 153 118 96 85 80 74 70 31 286 312 339 344 339 331 308
243 259 227 210 226 214 11 79 51 42 95 32 264 106 273 239 287 173 192 186 180 176 157 159 167 162 163 168 166 161 128 102 83 89 109 108 41 359 360 351 347 335 327 324
305 238 257 180 178 90 85 73 322 336 356 222 355 4 243 291 259 221 195 185 182 171 166 168 172 181 177 186 195 134 111 105 86 63 42 25 19 11 345 310 300 335 334 334
268 325 358 29 154 182 193 155 176 226 222 250 336 244 258 262 313 288 168 168 183 178 176 179 185 188 187 187 160 141 142 158 155 116 38 23 22 18 351 334 323 323 329 319
218 271 309 46 27 97 213 144 175 132 28 37 242 300 294 332 5 67 160 183 201 192 193 193 191 188 184 179 180 159 161 176 157 72 30 15 354 339 323 325 313 301 285 315
229 260 27 334 357 3 104 115 68 5 274 260 271 263 246 282 242 221 209 207 202 192 208 241 240 225 195 185 152 163 174 173 155 93 34 347 323 331 326 319 298 286 287 306
92 137 278 39 11 269 351 38 43 101 138 207 284 258 227 247 221 209 218 212 200 198 205 195 209 219 214 170 178 171 181 178 153 48 10 336 319 318 303 285 275 288 273 290
59 356 216 215 248 13 334 180 167 131 248 230 207 252 254 247 256 217 228 214 199 202 195 204 207 193 199 190 188 197 191 153 285 257 262 294 313 297 285 284 295 302 300 312
154 77 338 344 43 19 209 204 155 109 77 216 262 273 248 306 306 261 238 214 200 202 196 211 210 190 206 207 209 207 194 224 228 227 275 304 297 284 278 276 293 300 290 296
129 136 175 205 257 115 185 208 201 152 152 279 255 281 288 292 252 243 239 214 196 164 174 225 233 230 215 212 211 207 228 227 235 239 251 256 258 253 253 274 293 301 300 305
75 168 111 283 238 194 208 203 222 218 247 247 280 278 283 300 306 293 238 188 175 211 237 235 217 215 221 215 210 225 239 234 222 232 238 240 243 246 254 260 264 280 287 281
185 209 153 241 258 232 239 220 231 247 259 264 268 273 299 290 302 299 213 197 213 229 240 237 232 217 206 204 217 225 232 230 205 222 237 241 245 246 247 251 262 271 276 290
151 149 123 283 209 28 268 200 218 233 226 230 260 276 346 357 356 4 343 344 328 241 218 224 234 219 215 217 220 225 231 226 214 226 237 238 236 238 242 244 242 243 263 273
159 139 159 268 102 260 284 234 230 231 239 214 344 47 60 43 353 18 22 30 5 351 324 298 266 250 242 239 240 239 235 225 223 232 234 230 222 230 236 238 235 240 241 256
154 140 221 239 251 289 273 262 179 185 230 163 181 235 221 25 31 331 359 18 294 263 259 251 244 236 245 242 243 239 235 232 228 237 234 231 216 219 219 229 235 233 223 257
41 51 211 133 232 257 166 130 61 50 273 184 157 217 58 58 52 265 268 313 308 302 293 291 283 266 249 251 249 249 254 250 244 248 243 233 216 214 216 216 219 227 218 208
164 233 235 242 254 270 230 145 65 111 262 178 195 198 194 193 197 285 337 0 13 15 16 9 7 357 356 2 345 311 288 273 273 270 256 240 216 212 214 214 199 215 222 220
189 183 203 202 244 269 145 97 170 218 67 290 341 346 354 27 35 36 33 24 19 20 13 13 11 8 3 6 352 342 337 331 333 321 291 267 235 210 204 209 208 210 209 219
212 201 186 199 214 126 51 103 297 338 193 19 59 50 81 60 39 37 30 25 21 18 8 9 1 358 2 1 360 344 348 347 333 313 312 288 273 255 213 196 195 198 203 215
280 152 222 137 178 141 114 31 42 62 90 76 67 64 65 63 39 43 36 25 10 6 359 352 353 353 352 351 344 338 340 338 332 328 318 289 259 246 234 200 193 192 190 212
172 150 168 251 283 112 45 80 103 91 91 88 79 70 63 58 42 37 25 13 1 354 10 11 3 355 350 346 342 346 347 340 331 327 324 316 273 246 225 223 208 203 216 178
202 170 178 219 166 103 104 101 103 100 92 85 92 82 62 51 43 25 17 356 6 24 5 4 353 342 342 343 353 347 346 342 338 334 323 323 309 294 255 238 270 268 257 219